Nebraska City, NE

3:11 PM CST on November 24, 2017 (GMT -0600)
Nebraska City Municipal

Weather History for KAFK - October, 2014

Change the Weather History Date:

Monday, October 27, 2014

  Actual Average (KSDA) Record (KSDA)
Temperature  
Mean Temperature 60 °F -  
Max Temperature 68 °F 63 °F 91 °F (1999)
Min Temperature 52 °F 40 °F 17 °F (1997)
Degree Days  
Heating Degree Days 5    
Growing Degree Days 10 (Base 50)    
Moisture  
Dew Point 46 °F    
Average Humidity 61    
Maximum Humidity 92    
Minimum Humidity 37    
Precipitation  
Precipitation 0.00 in - - ()
Sea Level Pressure  
Sea Level Pressure 29.66 in    
Wind  
Wind Speed 9 mph (NW)    
Max Wind Speed 24 mph    
Max Gust Speed 33 mph    
Visibility 10 miles    
Events      
Averages and records for this station are not official NWS values.
T = Trace of Precipitation, MM = Missing Value Source: NWS Daily Summary

Daily Weather History Graph

Daily Weather History Graph

Search for Another Location

Airport or City:

Trip Planner

Search our weather history database for the weather conditions in past years. The results will help you decide how hot, cold, wet, or windy it might be!

Date:

Astronomy

Oct. 27, 2014 Rise Set
Actual Time 7:47 AM CDT 6:26 PM CDT
Civil Twilight 7:19 AM CDT 6:54 PM CDT
Nautical Twilight 6:47 AM CDT 7:26 PM CDT
Astronomical Twilight 6:15 AM CDT 7:57 PM CDT
Moon 11:24 AM CDT (10/27) 9:32 PM CDT (10/27)
Length of Visible Light 11h 34m
Length of Day
10h 38m
Waxing Crescent, 15% of the Moon is Illuminated
Oct 27
Waxing Crescent
Oct 30
First Quarter
Nov 6
Full
Nov 14
Last Quarter
Nov 22
New

Hourly Weather History & Observations

Time (CDT) Temp. Dew Point Humidity Pressure Visibility Wind Dir Wind Speed Gust Speed Precip Events Conditions
12:15 AM 64.9 °F 48.6 °F 55% 29.54 in 10.0 mi SSW 9.2 mph - N/A   Clear
12:35 AM 64.6 °F 48.4 °F 56% 29.54 in 10.0 mi SW 9.2 mph - N/A   Clear
12:55 AM 61.7 °F 48.4 °F 62% 29.54 in 10.0 mi SW 9.2 mph - N/A   Clear
1:15 AM 61.5 °F 48.4 °F 62% 29.54 in 10.0 mi SW 9.2 mph - N/A   Clear
1:35 AM 60.4 °F 48.7 °F 65% 29.54 in 10.0 mi SW 8.1 mph - N/A   Clear
1:55 AM 59.9 °F 49.5 °F 68% 29.54 in 10.0 mi SW 9.2 mph - N/A   Clear
2:15 AM 59.4 °F 49.6 °F 70% 29.54 in 10.0 mi WSW 9.2 mph - N/A   Clear
2:35 AM 59.2 °F 50.0 °F 72% 29.54 in 10.0 mi WSW 10.4 mph - N/A   Clear
2:55 AM 59.0 °F 49.8 °F 72% 29.54 in 10.0 mi WSW 9.2 mph - N/A   Clear
3:15 AM 58.6 °F 49.6 °F 72% 29.54 in 10.0 mi SW 6.9 mph - N/A   Clear
3:35 AM 57.4 °F 49.5 °F 75% 29.54 in 10.0 mi WSW 5.8 mph - N/A   Clear
3:55 AM 57.0 °F 49.5 °F 76% 29.54 in 10.0 mi WSW 6.9 mph - N/A   Clear
4:15 AM 57.6 °F 49.5 °F 74% 29.54 in 10.0 mi WSW 8.1 mph - N/A   Clear
4:35 AM 57.6 °F 49.6 °F 75% 29.54 in 10.0 mi WSW 8.1 mph - N/A   Clear
4:55 AM 57.2 °F 49.5 °F 75% 29.55 in 10.0 mi WSW 9.2 mph - N/A   Clear
5:15 AM 57.2 °F 49.1 °F 74% 29.55 in 10.0 mi SW 6.9 mph - N/A   Clear
5:35 AM 56.3 °F 49.1 °F 77% 29.56 in 10.0 mi SW 6.9 mph - N/A   Clear
5:55 AM 56.3 °F 49.3 °F 77% 29.57 in 10.0 mi WSW 8.1 mph - N/A   Clear
6:15 AM 55.8 °F 49.1 °F 78% 29.57 in 10.0 mi West 5.8 mph - N/A   Clear
6:35 AM 55.4 °F 48.7 °F 78% 29.57 in 10.0 mi Calm Calm - N/A   Clear
6:55 AM 54.5 °F 48.7 °F 81% 29.58 in 10.0 mi Calm Calm - N/A   Clear
7:15 AM 54.5 °F 48.2 °F 79% 29.58 in 10.0 mi SSW 4.6 mph - N/A   Clear
7:35 AM 53.6 °F 50.2 °F 88% 29.56 in 10.0 mi SSW 4.6 mph - N/A   Clear
7:55 AM 53.1 °F 50.9 °F 92% 29.57 in 10.0 mi SW 3.5 mph - N/A   Clear
8:15 AM 54.7 °F 50.5 °F 86% 29.56 in 10.0 mi SSW 4.6 mph - N/A   Clear
8:35 AM 56.1 °F 51.6 °F 85% 29.57 in 10.0 mi West 4.6 mph - N/A   Clear
8:55 AM 56.8 °F 50.4 °F 79% 29.58 in 10.0 mi WNW 8.1 mph - N/A   Clear
9:15 AM 58.3 °F 51.8 °F 79% 29.57 in 10.0 mi NW 4.6 mph - N/A   Clear
9:35 AM 59.7 °F 52.0 °F 76% 29.59 in 10.0 mi NNW 8.1 mph - N/A   Clear
9:55 AM 60.1 °F 51.8 °F 74% 29.59 in 10.0 mi North 5.8 mph - N/A   Clear
10:15 AM 63.1 °F 52.0 °F 67% 29.60 in 10.0 mi North 9.2 mph - N/A   Clear
10:35 AM 62.4 °F 52.0 °F 69% 29.59 in 10.0 mi North 6.9 mph - N/A   Clear
10:55 AM 61.9 °F 52.2 °F 70% 29.60 in 10.0 mi NNW 8.1 mph - N/A   Clear
11:15 AM 63.5 °F 52.3 °F 67% 29.59 in 10.0 mi North 12.7 mph - N/A   Clear
11:35 AM 64.2 °F 51.8 °F 64% 29.59 in 10.0 mi North 12.7 mph - N/A   Clear
11:55 AM 64.6 °F 51.1 °F 62% 29.60 in 10.0 mi North 11.5 mph - N/A   Clear
12:15 PM 67.1 °F 49.5 °F 53% 29.61 in 10.0 mi North 16.1 mph 19.6 mph N/A   Scattered Clouds
12:35 PM 66.0 °F 49.5 °F 55% 29.62 in 10.0 mi North 15.0 mph 19.6 mph N/A   Overcast
12:55 PM 65.5 °F 45.5 °F 48% 29.63 in 10.0 mi North 12.7 mph 20.7 mph N/A   Overcast
1:15 PM 65.3 °F 45.5 °F 49% 29.64 in 10.0 mi North 9.2 mph - N/A   Overcast
1:35 PM 66.0 °F 43.7 °F 44% 29.64 in 10.0 mi North 15.0 mph 23.0 mph N/A   Overcast
1:55 PM 67.3 °F 43.7 °F 42% 29.64 in 10.0 mi North 11.5 mph 23.0 mph N/A   Overcast
2:15 PM 67.8 °F 42.8 °F 40% 29.64 in 10.0 mi North 15.0 mph 23.0 mph N/A   Overcast
2:35 PM 67.6 °F 43.0 °F 41% 29.65 in 10.0 mi North 16.1 mph 20.7 mph N/A   Overcast
2:55 PM 68.0 °F 42.3 °F 39% 29.66 in 10.0 mi North 16.1 mph 19.6 mph N/A   Overcast
3:15 PM 68.2 °F 42.1 °F 39% 29.66 in 10.0 mi North 15.0 mph 19.6 mph N/A   Overcast
3:35 PM 68.9 °F 41.4 °F 37% 29.67 in 10.0 mi North 15.0 mph 21.9 mph N/A   Overcast
3:55 PM 68.0 °F 41.5 °F 38% 29.67 in 10.0 mi North 11.5 mph 17.3 mph N/A   Overcast
4:15 PM 68.0 °F 40.6 °F 37% 29.67 in 10.0 mi North 11.5 mph 17.3 mph N/A   Mostly Cloudy
4:35 PM 67.5 °F 40.8 °F 38% 29.69 in 10.0 mi North 10.4 mph - N/A   Overcast
4:55 PM 67.1 °F 41.5 °F 39% 29.71 in 10.0 mi North 5.8 mph - N/A   Overcast
5:15 PM 67.1 °F 41.9 °F 40% 29.70 in 10.0 mi North 6.9 mph - N/A   Overcast
5:35 PM 67.3 °F 41.7 °F 39% 29.72 in 10.0 mi North 4.6 mph - N/A   Mostly Cloudy
5:55 PM 65.5 °F 42.3 °F 43% 29.74 in 10.0 mi NNW 17.3 mph 26.5 mph N/A   Scattered Clouds
6:15 PM 62.4 °F 43.9 °F 51% 29.77 in 10.0 mi NW 24.2 mph 33.4 mph N/A   Clear
6:35 PM 57.9 °F 42.3 °F 56% 29.79 in 10.0 mi NNW 19.6 mph 27.6 mph N/A   Clear
6:55 PM 55.8 °F 39.7 °F 55% 29.80 in 10.0 mi NNW 15.0 mph 21.9 mph N/A   Clear
7:15 PM 54.5 °F 37.9 °F 54% 29.82 in 10.0 mi NNW 13.8 mph 26.5 mph N/A   Clear
7:35 PM 54.3 °F 36.0 °F 50% 29.83 in 10.0 mi North 13.8 mph 20.7 mph N/A   Mostly Cloudy
7:55 PM 53.8 °F 35.8 °F 51% 29.85 in 10.0 mi NNW 10.4 mph 23.0 mph N/A   Mostly Cloudy
8:15 PM 53.8 °F 36.1 °F 51% 29.86 in 10.0 mi NNW 15.0 mph 21.9 mph N/A   Overcast
8:35 PM 53.8 °F 36.5 °F 52% 29.88 in 10.0 mi NNW 11.5 mph - N/A   Overcast
8:55 PM 53.1 °F 36.9 °F 54% 29.87 in 10.0 mi NNW 11.5 mph 17.3 mph N/A   Mostly Cloudy
9:15 PM 53.1 °F 37.6 °F 56% 29.89 in 10.0 mi NNW 10.4 mph - N/A   Mostly Cloudy
9:35 PM 53.1 °F 37.4 °F 55% 29.89 in 10.0 mi NNW 12.7 mph - N/A   Mostly Cloudy
9:55 PM 52.9 °F 37.8 °F 56% 29.90 in 10.0 mi NNW 10.4 mph - N/A   Mostly Cloudy
10:15 PM 52.9 °F 38.3 °F 58% 29.92 in 10.0 mi NW 9.2 mph - N/A   Mostly Cloudy
10:35 PM 52.7 °F 39.0 °F 60% 29.94 in 10.0 mi NW 9.2 mph - N/A   Overcast
10:55 PM 52.7 °F 39.2 °F 60% 29.96 in 10.0 mi WNW 9.2 mph - N/A   Overcast
11:15 PM 52.7 °F 39.2 °F 60% 29.96 in 10.0 mi NW 9.2 mph - N/A   Mostly Cloudy
11:35 PM 52.9 °F 38.3 °F 58% 29.97 in 10.0 mi NW 9.2 mph - N/A   Mostly Cloudy
11:55 PM 52.7 °F 38.3 °F 58% 29.98 in 10.0 mi West 8.1 mph - N/A   Overcast